Weather reports worldwide

Advertisment
Stonyhurst, United Kingdom (99060): temperature & dewpoint: 09.12.2018 22:00:00 - 15.12.2018 22:00:00 (GMT)Stonyhurst, United Kingdom (99060): precipitation: 09.12.2018 22:00:00 - 15.12.2018 22:00:00 (GMT)
Date & Time tt [°C] td [°C] rr [mm]
15.12.2018 22:00:00 - - -
15.12.2018 21:00:00 5,7 3,9 0,0
15.12.2018 20:00:00 4,1 2,5 0,0
15.12.2018 19:00:00 2,7 1,8 0,4
15.12.2018 18:00:00 1,8 0,8 2,0
15.12.2018 17:00:00 1,7 0,5 0,6
15.12.2018 16:00:00 1,4 -0,1 0,2
15.12.2018 15:00:00 1,3 -0,3 0,0
15.12.2018 14:00:00 1,3 -0,5 0,4
15.12.2018 13:00:00 1,0 -1,1 0,2
15.12.2018 12:00:00 1,0 -1,9 0,0
15.12.2018 11:00:00 1,2 -2,7 0,0
15.12.2018 10:00:00 1,5 -2,8 0,0
15.12.2018 09:00:00 1,8 -2,4 0,0
15.12.2018 08:00:00 1,8 -2,7 0,0
15.12.2018 07:00:00 1,6 -3,3 0,0
15.12.2018 06:00:00 1,6 -3,2 0,0
15.12.2018 05:00:00 1,8 -4,0 0,0
15.12.2018 04:00:00 1,8 -3,3 0,0
15.12.2018 03:00:00 1,9 -2,2 0,0
15.12.2018 02:00:00 1,9 -2,4 0,0
15.12.2018 01:00:00 1,8 -3,4 0,0
15.12.2018 00:00:00 1,9 -3,8 0,0
14.12.2018 23:00:00 1,5 -3,5 0,0
14.12.2018 22:00:00 1,2 -3,1 0,0
14.12.2018 21:00:00 0,8 -2,7 0,0
14.12.2018 20:00:00 1,2 -2,4 0,0
14.12.2018 19:00:00 0,2 -2,9 0,0
14.12.2018 18:00:00 0,4 -2,8 0,0
14.12.2018 17:00:00 1,9 -2,3 0,0
14.12.2018 16:00:00 2,0 -2,2 0,0
14.12.2018 15:00:00 3,1 -2,2 0,0
14.12.2018 14:00:00 3,9 -1,7 0,0
14.12.2018 13:00:00 4,2 -2,1 0,0
14.12.2018 12:00:00 3,1 -1,9 0,0
14.12.2018 11:00:00 1,3 -2,3 0,0
14.12.2018 10:00:00 0,5 -3,2 0,0
14.12.2018 09:00:00 -0,3 -3,4 0,0
14.12.2018 08:00:00 -0,2 -3,2 0,0
14.12.2018 07:00:00 -0,8 -2,9 0,0
14.12.2018 06:00:00 -0,3 -2,8 0,0
14.12.2018 05:00:00 -0,4 -2,9 0,0
14.12.2018 04:00:00 0,0 -3,1 0,0
14.12.2018 03:00:00 0,9 -2,6 0,0
14.12.2018 02:00:00 0,4 -2,9 0,0
14.12.2018 01:00:00 1,3 -2,4 0,0
14.12.2018 00:00:00 0,7 -2,1 0,0
13.12.2018 23:00:00 1,3 -2,1 0,0
13.12.2018 22:00:00 1,1 -1,8 0,0
13.12.2018 21:00:00 2,0 -1,1 0,0
13.12.2018 20:00:00 2,3 -0,8 0,0
13.12.2018 19:00:00 2,9 -0,3 0,0
13.12.2018 18:00:00 3,4 0,0 0,0
13.12.2018 17:00:00 3,4 -0,6 0,0
13.12.2018 16:00:00 3,8 -0,7 0,0
13.12.2018 15:00:00 4,8 -0,5 0,0
13.12.2018 14:00:00 5,2 -0,4 0,0
13.12.2018 13:00:00 4,9 -0,4 0,0
13.12.2018 12:00:00 4,6 -0,6 0,0
13.12.2018 11:00:00 4,2 -0,5 0,0
13.12.2018 10:00:00 3,4 -1,3 0,0
13.12.2018 09:00:00 3,4 -1,5 0,0
13.12.2018 08:00:00 3,5 -1,4 0,0
13.12.2018 07:00:00 3,5 -1,1 0,0
13.12.2018 06:00:00 3,5 -1,0 0,0
13.12.2018 05:00:00 3,5 -0,9 0,0
13.12.2018 04:00:00 2,6 -0,4 0,0
13.12.2018 03:00:00 2,2 -1,3 0,0
13.12.2018 02:00:00 2,0 -1,4 0,0
13.12.2018 01:00:00 2,3 -1,6 0,0
13.12.2018 00:00:00 2,2 -1,9 0,0
12.12.2018 23:00:00 2,6 -2,4 0,0
12.12.2018 22:00:00 2,5 -1,8 0,0
12.12.2018 21:00:00 3,0 -1,1 0,0
12.12.2018 20:00:00 3,8 -0,2 0,0
12.12.2018 19:00:00 4,2 0,7 0,0
12.12.2018 18:00:00 5,0 1,9 0,0
12.12.2018 17:00:00 6,0 3,2 0,0
12.12.2018 16:00:00 6,3 3,7 0,0
12.12.2018 15:00:00 6,9 3,6 0,0
12.12.2018 14:00:00 6,7 3,8 0,0
12.12.2018 13:00:00 7,3 4,1 0,0
12.12.2018 12:00:00 7,3 4,4 0,0
12.12.2018 11:00:00 6,8 4,4 0,0
12.12.2018 10:00:00 6,3 4,4 0,0
12.12.2018 09:00:00 6,0 4,1 0,0
12.12.2018 08:00:00 5,3 4,1 0,0
12.12.2018 07:00:00 4,9 3,8 0,0
12.12.2018 06:00:00 5,1 3,7 0,0
12.12.2018 05:00:00 5,2 3,5 0,0
12.12.2018 04:00:00 5,5 3,9 0,0
12.12.2018 03:00:00 5,9 4,0 0,0
12.12.2018 02:00:00 6,4 4,4 0,0
12.12.2018 01:00:00 6,2 4,1 0,0
12.12.2018 00:00:00 6,3 4,2 0,0
11.12.2018 23:00:00 6,6 4,3 0,0
11.12.2018 22:00:00 6,9 4,7 0,0
11.12.2018 21:00:00 6,6 4,5 0,0
11.12.2018 20:00:00 6,6 4,5 0,0
11.12.2018 19:00:00 6,3 4,5 0,0
11.12.2018 18:00:00 6,7 4,6 0,0
11.12.2018 17:00:00 7,2 4,8 0,0
11.12.2018 16:00:00 7,5 4,8 0,0
11.12.2018 15:00:00 8,3 6,0 0,0
11.12.2018 14:00:00 8,7 6,4 0,0
11.12.2018 13:00:00 9,1 6,0 0,0
11.12.2018 12:00:00 9,0 7,3 0,0
11.12.2018 11:00:00 6,9 5,4 0,0
11.12.2018 10:00:00 6,6 5,3 0,0
11.12.2018 09:00:00 5,9 4,8 0,0
11.12.2018 08:00:00 5,6 4,5 0,0
11.12.2018 07:00:00 5,4 4,7 0,0
11.12.2018 06:00:00 4,8 4,5 0,0
11.12.2018 05:00:00 4,7 4,4 0,0
11.12.2018 04:00:00 4,9 4,6 0,0
11.12.2018 03:00:00 4,4 4,0 0,0
11.12.2018 02:00:00 4,3 3,9 0,0
11.12.2018 01:00:00 4,4 4,0 0,0
11.12.2018 00:00:00 5,4 5,0 0,0
10.12.2018 23:00:00 5,3 4,8 0,0
10.12.2018 22:00:00 5,9 5,4 0,0
10.12.2018 21:00:00 5,8 5,2 0,0
10.12.2018 20:00:00 6,1 5,2 0,0
10.12.2018 19:00:00 6,5 5,7 0,0
10.12.2018 18:00:00 6,5 5,6 0,0
10.12.2018 17:00:00 6,6 5,5 0,0
10.12.2018 16:00:00 7,0 5,6 0,0
10.12.2018 15:00:00 7,3 5,8 0,0
10.12.2018 14:00:00 7,7 5,4 0,0
10.12.2018 13:00:00 7,6 5,1 0,0
10.12.2018 12:00:00 7,9 5,0 0,0
10.12.2018 11:00:00 6,1 5,4 0,0
10.12.2018 10:00:00 6,5 4,9 0,0
10.12.2018 09:00:00 6,2 4,9 0,0
10.12.2018 08:00:00 6,5 4,8 0,0
10.12.2018 07:00:00 5,9 5,1 0,0
10.12.2018 06:00:00 5,9 5,2 0,0
10.12.2018 05:00:00 6,6 5,4 0,0
10.12.2018 04:00:00 6,5 4,6 0,4
10.12.2018 03:00:00 5,9 5,2 0,0
10.12.2018 02:00:00 5,1 4,5 0,0
10.12.2018 01:00:00 4,7 3,2 0,0
10.12.2018 00:00:00 5,2 4,2 0,0
09.12.2018 23:00:00 4,9 3,7 0,0
09.12.2018 22:00:00 5,2 3,3 0,0

tt = temperature
td = dewpoint
rr = precipitation

Next stations